Location: Emporia
(38.4040°N, 96.1810°W)
Time: 10:28:36
(UTC-05:00)

Amateur Radio Satellites - All Passes

Search period start: 01 May 2016 09:58
Search period end: 02 May 2016 09:58
Location: Emporia, 38.4040°N, 96.1810°W

Satellite Date Start Highest point End Downlink Frequencies (MHz)
Time Altitude Azimuth
PHONESAT 2.4 01 May 10:00:49 10:01:08 10° 144° (SE) 10:01:26 2401.200-2431.200
AAUSAT CUBESAT 2 01 May 10:01:22 10:05:30 65° 101° (E) 10:09:36 437.432
GOMX 1 01 May 10:03:21 10:05:14 12° 300° (WNW) 10:07:06 467.674
Oscar 11 01 May 10:05:52 10:09:34 27° 96° (E) 10:13:15 145.826/435.025
DOVE 4 01 May 10:07:08 10:10:34 18° 296° (WNW) 10:13:53 437.250
TIGRISAT 01 May 10:08:10 10:11:44 22° 68° (ENE) 10:15:16 435.000
FUNcube-1 01 May 10:14:58 10:18:34 27° 96° (E) 10:22:06 145.935
UWE-3 01 May 10:21:06 10:25:18 54° 100° (E) 10:29:22 435.000/436.395/437.385
CUBEBUG 2 01 May 10:24:44 10:29:06 89° 104° (ESE) 10:33:19 437.445
HO-68 01 May 10:26:39 10:33:33 53° 292° (WNW) 10:40:25 435.675
CUTE 1.7 + AOD 2 01 May 10:27:36 10:31:04 25° 290° (WNW) 10:34:33 437.475
ANTELSAT 01 May 10:31:22 10:35:43 40° 72° (ENE) 10:40:02 437.575/2403.000
HUMSAT D 01 May 10:40:23 10:42:18 13° 92° (E) 10:44:13 437.325/437.525
QB50P2 01 May 10:50:29 10:52:19 13° 64° (ENE) 10:54:10 145.880/145.840
POLYITAN 1 01 May 10:52:32 10:54:27 13° 64° (ENE) 10:56:22 437.675
DUCHIFAT 1 01 May 10:53:09 10:54:29 11° 64° (ENE) 10:55:51 145.980
Cosmos 2504 01 May 10:55:13 10:57:01 11° 282° (WNW) 10:58:51 435.465 / 435.565
POPSAT HIP 1 01 May 10:55:26 10:57:31 13° 65° (ENE) 10:59:36 437.405
ZACube-1 01 May 10:55:48 11:00:02 88° 292° (WNW) 11:04:10 437.345
QB50P1 01 May 10:58:30 11:00:54 15° 65° (ENE) 11:03:17 145.935-145.965
SEEDS 01 May 10:58:49 11:01:25 16° 293° (WNW) 11:04:01 437.485
CINEMA 3 01 May 11:04:32 11:06:33 13° 297° (WNW) 11:08:31 145.822/145.860
COMPASS 1 01 May 11:05:10 11:08:05 19° 292° (WNW) 11:10:59 437.405
UNISAT 6 01 May 11:25:25 11:29:59 52° 260° (W) 11:34:30 437.425
DELFI C3 01 May 11:29:24 11:33:19 60° 285° (WNW) 11:37:15 145.870
NANOSAT C BR1 01 May 11:32:39 11:36:29 33° 71° (ENE) 11:40:19 145.865
PHONESAT 2.4 01 May 11:34:27 11:37:30 51° 158° (SSE) 11:40:35 2401.200-2431.200
AAUSAT CUBESAT 2 01 May 11:40:12 11:40:25 10° 296° (WNW) 11:40:37 437.432
BUGSAT 1 01 May 11:40:32 11:43:29 19° 67° (ENE) 11:46:29 437.445
Oscar 11 01 May 11:42:08 11:45:34 23° 291° (WNW) 11:48:57 145.826/435.025
TIGRISAT 01 May 11:43:56 11:48:12 35° 263° (W) 11:52:26 435.000
FUNcube-1 01 May 11:51:27 11:54:40 22° 292° (WNW) 11:57:50 145.935
ESTCUBE 1 01 May 11:53:19 11:56:26 18° 94° (E) 11:59:32 437.505/2401.250
GONETS M04 01 May 11:56:13 12:04:23 41° 74° (ENE) 12:12:26
UWE-3 01 May 11:59:31 12:01:14 12° 296° (WNW) 12:02:57 435.000/436.395/437.385
ANTELSAT 01 May 12:09:17 12:12:32 19° 266° (W) 12:15:46 437.575/2403.000
HUMSAT D 01 May 12:14:17 12:18:09 43° 287° (WNW) 12:22:00 437.325/437.525
CUBEBUG 1 01 May 12:22:54 12:26:39 26° 96° (E) 12:30:22 437.445
QB50P2 01 May 12:23:26 12:27:38 55° 260° (W) 12:31:52 145.880/145.840
DUCHIFAT 1 01 May 12:25:26 12:29:38 62° 259° (WSW) 12:33:53 145.980
POLYITAN 1 01 May 12:25:34 12:29:46 54° 260° (W) 12:34:00 437.675
AIST 1 01 May 12:27:10 12:31:35 68° 82° (E) 12:35:57
POPSAT HIP 1 01 May 12:28:40 12:32:50 51° 260° (W) 12:37:03 437.405
QB50P1 01 May 12:32:09 12:36:16 46° 261° (W) 12:40:24 145.935-145.965
JAS-2 01 May 12:42:20 12:47:16 28° 63° (ENE) 12:52:42 435.910
VELOX 1 01 May 12:45:16 12:49:37 47° 100° (E) 12:53:54 145.980
DX 1 01 May 12:48:04 12:52:18 45° 99° (E) 12:56:30 434.975-435.025
UKube-1 01 May 12:57:40 13:01:52 46° 100° (E) 13:06:02 .
AO-85 01 May 13:00:55 13:05:42 32° 112° (ESE) 13:10:30 145.980
Cosmos 2499 01 May 13:08:15 13:15:55 64° 80° (E) 13:24:10 435.465 / 435.565
NANOSAT C BR1 01 May 13:09:13 13:12:16 19° 266° (W) 13:15:19 145.865
PHONESAT 2.4 01 May 13:11:16 13:14:23 60° 354° (N) 13:17:31 2401.200-2431.200
BUGSAT 1 01 May 13:14:46 13:18:36 34° 262° (W) 13:22:30 437.445
Gurwin Techsat 1B 01 May 13:14:52 13:16:56 12° 60° (ENE) 13:18:59 435.225
50 SAT 01 May 13:14:59 13:18:32 53° 286° (WNW) 13:22:06 437.505
AISAT 01 May 13:17:03 13:21:32 70° 285° (WNW) 13:25:57 437.250
ESTCUBE 1 01 May 13:29:09 13:33:22 39° 288° (WNW) 13:37:34 437.505/2401.250
Oscar 19 01 May 13:30:16 13:35:06 41° 70° (ENE) 13:39:57 437.125/150
SPROUT 01 May 13:30:37 13:34:53 57° 101° (E) 13:39:04 437.525
GONETS M04 01 May 13:53:09 14:01:06 41° 273° (W) 14:09:00
CUBEBUG 1 01 May 13:59:09 14:02:50 26° 291° (WNW) 14:06:29 437.445
TISAT 1 01 May 14:10:49 14:14:54 45° 100° (E) 14:18:56 437.305
VELOX 1 01 May 14:23:01 14:25:40 16° 295° (WNW) 14:28:17 145.980
DX 1 01 May 14:25:26 14:28:06 16° 295° (WNW) 14:30:45 434.975-435.025
JAS-2 01 May 14:26:29 14:31:59 44° 263° (W) 14:38:12 435.910
ISS 01 May 14:29:00 14:31:53 28° 30° (NNE) 14:34:45 145.825
O/OREOS (USA 219) 01 May 14:32:55 14:34:22 11° 97° (E) 14:35:51 437.305
UKube-1 01 May 14:35:02 14:37:30 15° 295° (WNW) 14:39:58 .
AO-85 01 May 14:41:05 14:46:09 37° 308° (NW) 14:51:09 145.980
ITAMSAT 1 01 May 14:45:28 14:50:10 36° 69° (ENE) 14:54:52 435.822/435.867
PHONESAT 2.4 01 May 14:48:17 14:51:25 71° 10° (N) 14:54:35 2401.200-2431.200
Gurwin Techsat 1B 01 May 14:50:48 14:56:07 84° 257° (WSW) 15:01:28 435.225
ITUPSAT 1 01 May 14:54:09 14:57:58 24° 95° (E) 15:01:47 437.325
Cosmos 2499 01 May 15:02:37 15:08:25 24° 276° (W) 15:14:33 435.465 / 435.565
SWISSCUBE 01 May 15:04:03 15:08:23 34° 98° (E) 15:12:42 437.505
CUSAT 1 01 May 15:07:48 15:08:44 11° 81° (E) 15:09:44 437.405
SPROUT 01 May 15:08:35 15:10:18 12° 296° (WNW) 15:12:00 437.525
Oscar 19 01 May 15:10:36 15:14:32 22° 266° (W) 15:18:31 437.125/150
AO-7 01 May 15:14:29 15:21:55 39° 62° (ENE) 15:29:22 29.400- 29.500
PCSat 01 May 15:17:28 15:20:06 14° 103° (ESE) 15:22:44 145.827
BEESAT 01 May 15:37:09 15:41:54 70° 102° (ESE) 15:46:39 436.000
TISAT 1 01 May 15:47:50 15:50:09 14° 295° (WNW) 15:52:26 437.305
ISS 01 May 16:05:24 16:08:19 30° 226° (SW) 16:11:13 145.825
O/OREOS (USA 219) 01 May 16:08:37 16:13:10 62° 293° (WNW) 16:17:45 437.305
SO-50 01 May 16:13:19 16:17:07 23° 47° (NE) 16:20:48 436.795
MOZHAYETS 4 01 May 16:22:43 16:25:35 16° 93° (E) 16:28:26
PHONESAT 2.4 01 May 16:25:18 16:28:11 33° 206° (SSW) 16:31:05 2401.200-2431.200
ITAMSAT 1 01 May 16:25:28 16:29:40 25° 265° (W) 16:33:54 435.822/435.867
KKS-1 01 May 16:29:43 16:33:39 30° 97° (E) 16:37:33 437.445
ITUPSAT 1 01 May 16:31:34 16:35:49 33° 290° (WNW) 16:40:04 437.325
SWISSCUBE 01 May 16:42:13 16:45:58 23° 293° (WNW) 16:49:43 437.505
CUSAT 1 01 May 16:47:11 16:50:09 31° 288° (WNW) 16:53:52 437.405
STARS 01 May 16:50:35 16:54:17 26° 96° (E) 16:57:56 437.465
HORYU 2 01 May 16:53:14 16:57:29 44° 72° (ENE) 17:01:44 437.375
PCSat 01 May 16:57:24 17:02:48 72° 299° (WNW) 17:08:15 145.827
Cosmos 2491 01 May 17:06:20 17:11:30 16° 63° (ENE) 17:16:36 435.465 / 435.565
AO-7 01 May 17:06:38 17:14:29 46° 259° (W) 17:22:24 29.400- 29.500
DANDE 01 May 17:17:07 17:19:38 31° 286° (WNW) 17:22:37 436.750
BEESAT 01 May 17:17:10 17:19:05 12° 298° (WNW) 17:21:00 436.000
NOAA 18 01 May 17:43:41 17:48:12 27° 65° (ENE) 17:52:43 137.9125
CUTE-I 01 May 17:44:01 17:47:37 19° 64° (ENE) 17:51:13 437.470
SO-50 01 May 17:53:21 17:57:45 41° 245° (WSW) 18:02:00 436.795
MOZHAYETS 4 01 May 17:58:36 18:02:56 43° 288° (WNW) 18:07:15
CUBESAT XI-V 01 May 18:03:13 18:06:50 22° 94° (E) 18:10:26 437.345
KKS-1 01 May 18:06:30 18:10:03 23° 292° (WNW) 18:13:35 437.445
BRITE-PL 01 May 18:10:45 18:14:45 27° 67° (ENE) 18:19:00 437.365/2234.400
Cubesat XI-IV 01 May 18:26:11 18:31:14 45° 71° (ENE) 18:36:18 437.490
STARS 01 May 18:26:53 18:30:33 26° 291° (WNW) 18:34:12 437.465
NOAA 15 01 May 18:29:06 18:34:19 75° 74° (ENE) 18:39:37 137.62
HORYU 2 01 May 18:31:33 18:34:14 16° 267° (W) 18:36:56 437.375
PCSat 01 May 18:45:06 18:47:11 12° 318° (NW) 18:49:16 145.827
M-CUBED/EXP-1 PRIME 01 May 18:57:09 19:01:41 49° 68° (ENE) 19:06:12 437.505
Cosmos 2491 01 May 19:00:49 19:09:42 85° 83° (E) 19:18:29 435.465 / 435.565
BEESAT 3 01 May 19:05:58 19:09:42 43° 116° (ESE) 19:13:28 437.485
HO-68 01 May 19:08:23 19:13:01 19° 57° (ENE) 19:17:39 435.675
BEESAT 2 01 May 19:11:00 19:14:25 28° 113° (ESE) 19:17:52 435.950
YUBILEINY 01 May 19:11:06 19:19:17 46° 88° (E) 19:27:26 435.215
LilacSat-2 01 May 19:12:15 19:16:06 62° 259° (W) 19:19:58 437.200
AUBIESAT-1 01 May 19:16:58 19:21:35 65° 70° (ENE) 19:26:10 437.475
CUTE-I 01 May 19:22:01 19:27:13 54° 260° (W) 19:32:26 437.470
NOAA 18 01 May 19:23:29 19:28:38 39° 261° (W) 19:33:47 137.9125
JUGNU 01 May 19:26:56 19:27:39 10° 171° (S) 19:28:22 437.505
GOMX 1 01 May 19:28:27 19:33:22 81° 75° (ENE) 19:38:40 467.674
DOVE 4 01 May 19:31:30 19:36:17 44° 71° (ENE) 19:41:15 437.250
CUBESAT XI-V 01 May 19:40:01 19:44:16 35° 289° (WNW) 19:48:31 437.345
CUTE 1.7 + AOD 2 01 May 19:44:11 19:46:35 15° 66° (ENE) 19:48:59 437.475
Cosmos 2504 01 May 19:45:37 19:49:05 14° 80° (E) 19:52:31 435.465 / 435.565
BRITE-PL 01 May 19:48:55 19:53:05 31° 266° (W) 19:57:34 437.365/2234.400
Cubesat XI-IV 01 May 20:07:32 20:11:29 21° 266° (W) 20:15:28 437.490
NOAA 15 01 May 20:12:40 20:14:37 12° 270° (W) 20:16:36 137.62
SEEDS 01 May 20:12:51 20:16:07 23° 69° (ENE) 20:19:23 437.485
COMPASS 1 01 May 20:19:03 20:21:57 19° 68° (ENE) 20:24:52 437.405
CINEMA 3 01 May 20:24:34 20:29:22 49° 73° (ENE) 20:34:13 145.822/145.860
STRAND 1 01 May 20:25:06 20:30:06 54° 101° (E) 20:35:06 437.568
AIST 2 01 May 20:33:11 20:35:30 15° 109° (ESE) 20:37:50 435.215
M-CUBED/EXP-1 PRIME 01 May 20:33:17 20:36:23 17° 262° (W) 20:39:29 437.505
CANX-2 01 May 20:44:42 20:48:56 87° 77° (ENE) 20:53:10 2200.000
BEESAT 3 01 May 20:45:01 20:47:37 17° 313° (NW) 20:50:15 437.485
BEESAT 2 01 May 20:48:58 20:52:14 24° 310° (NW) 20:55:31 435.950
AAUSAT CUBESAT 2 01 May 20:50:14 20:53:57 34° 72° (ENE) 20:57:40 437.432
HO-68 01 May 20:52:42 20:59:52 83° 255° (WSW) 21:07:05 435.675
AUBIESAT-1 01 May 20:54:26 20:56:22 12° 264° (W) 20:58:18 437.475
Oscar 11 01 May 20:59:48 21:02:48 19° 67° (ENE) 21:05:48 145.826/435.025
Cosmos 2491 01 May 21:00:00 21:05:17 18° 282° (WNW) 21:10:35 435.465 / 435.565
YUBILEINY 01 May 21:08:18 21:16:10 36° 287° (WNW) 21:24:03 435.215
FUNcube-1 01 May 21:09:12 21:12:32 21° 68° (ENE) 21:15:50 145.935
DOVE 4 01 May 21:10:23 21:14:09 21° 268° (W) 21:18:01 437.250
GOMX 1 01 May 21:11:18 21:12:09 10° 273° (W) 21:13:00 467.674
JUGNU 01 May 21:13:33 21:15:45 12° 182° (S) 21:17:58 437.505
UWE-3 01 May 21:16:06 21:20:24 38° 72° (ENE) 21:24:39 435.000/436.395/437.385
RS-15 01 May 21:16:46 21:26:06 32° 103° (ESE) 21:35:47 29.354- 29.394
CUTE 1.7 + AOD 2 01 May 21:18:02 21:22:03 43° 262° (W) 21:26:04 437.475
CUBEBUG 2 01 May 21:20:27 21:25:09 62° 74° (ENE) 21:29:47 437.445
Cosmos 2504 01 May 21:34:04 21:41:26 84° 277° (W) 21:48:38 435.465 / 435.565
AO-85 01 May 21:35:00 21:38:25 19° 44° (NE) 21:41:38 145.980
PRISM 01 May 21:37:39 21:41:48 66° 102° (ESE) 21:45:57 437.425
SEEDS 01 May 21:48:09 21:51:42 26° 264° (W) 21:55:14 437.485
ZACube-1 01 May 21:49:26 21:53:55 59° 75° (ENE) 21:58:20 437.345
COMPASS 1 01 May 21:53:35 21:57:17 31° 263° (W) 22:01:00 437.405
CINEMA 3 01 May 22:03:22 22:06:43 18° 268° (W) 22:10:05 145.822/145.860
STRAND 1 01 May 22:05:32 22:08:50 18° 296° (WNW) 22:12:07 437.568
AIST 2 01 May 22:09:37 22:13:35 45° 305° (NW) 22:17:35 435.215
SRMSAT 01 May 22:10:59 22:12:58 12° 175° (S) 22:14:59 437.500
DELFI C3 01 May 22:13:38 22:17:30 59° 75° (ENE) 22:21:24 145.870
AAUSAT CUBESAT 2 01 May 22:26:49 22:29:31 17° 267° (W) 22:32:13 437.432
Oscar 11 01 May 22:34:42 22:38:39 35° 262° (W) 22:42:38 145.826/435.025
FUNcube-1 01 May 22:44:22 22:48:32 35° 263° (W) 22:52:39 145.935
HO-68 01 May 22:45:48 22:48:30 12° 271° (W) 22:51:14 435.675
ESTCUBE 1 01 May 22:52:19 22:54:46 15° 65° (ENE) 22:57:15 437.505/2401.250
UWE-3 01 May 22:53:35 22:56:57 19° 267° (W) 23:00:16 435.000/436.395/437.385
CUBEBUG 2 01 May 23:00:06 23:02:06 12° 269° (W) 23:04:06 437.445
HUMSAT D 01 May 23:03:22 23:07:37 81° 259° (W) 23:11:50 437.325/437.525
AO-85 01 May 23:14:43 23:19:18 53° 244° (WSW) 23:23:28 145.980
PRISM 01 May 23:15:55 23:16:33 10° 297° (WNW) 23:17:11 437.425
CUBEBUG 1 01 May 23:17:59 23:21:04 19° 67° (ENE) 23:24:10 437.445
UNISAT 6 01 May 23:18:59 23:22:56 34° 97° (E) 23:26:50 437.425
RS-15 01 May 23:26:16 23:37:29 69° 305° (NW) 23:49:26 29.354- 29.394
ZACube-1 01 May 23:28:49 23:30:31 12° 269° (W) 23:32:12 437.345
Cosmos 2504 01 May 23:33:07 23:35:55 12° 297° (WNW) 23:38:43 435.465 / 435.565
TIGRISAT 01 May 23:36:44 23:40:58 52° 100° (E) 23:45:07 435.000
VELOX 1 01 May 23:41:07 23:45:08 35° 71° (ENE) 23:49:11 145.980
DX 1 01 May 23:42:11 23:46:03 32° 70° (ENE) 23:49:58 434.975-435.025
UKube-1 01 May 23:50:49 23:54:39 32° 70° (ENE) 23:58:32 .
50 SAT 01 May 23:51:55 23:55:28 50° 74° (ENE) 23:59:01 437.505
SRMSAT 01 May 23:59:18 00:01:15 12° 186° (S) 00:03:12 437.500
ANTELSAT 02 May 00:01:00 00:05:21 75° 283° (WNW) 00:09:35 437.575/2403.000
PCSat 02 May 00:06:13 00:07:43 11° 40° (NE) 00:09:12 145.827
QB50P2 02 May 00:10:20 00:13:52 25° 96° (E) 00:17:23 145.880/145.840
DUCHIFAT 1 02 May 00:11:44 00:15:04 22° 95° (E) 00:18:22 145.980
POLYITAN 1 02 May 00:12:28 00:16:01 26° 96° (E) 00:19:32 437.675
AISAT 02 May 00:12:33 00:17:00 84° 74° (ENE) 00:21:29 437.250
POPSAT HIP 1 02 May 00:15:20 00:18:57 27° 96° (E) 00:22:32 437.405
QB50P1 02 May 00:18:34 00:22:19 30° 97° (E) 00:26:02 145.935-145.965
SPROUT 02 May 00:22:42 00:26:38 35° 72° (ENE) 00:30:35 437.525
ESTCUBE 1 02 May 00:26:47 00:31:08 50° 260° (W) 00:35:31 437.505/2401.250
O/OREOS (USA 219) 02 May 00:41:52 00:45:04 19° 58° (ENE) 00:48:14 437.305
CUBEBUG 1 02 May 00:53:03 00:57:05 36° 262° (W) 01:01:09 437.445
NANOSAT C BR1 02 May 00:53:41 00:57:55 76° 102° (ESE) 01:02:07 145.865
AIST 1 02 May 00:54:51 00:58:53 41° 92° (E) 01:02:59
GONETS M04 02 May 00:54:58 01:03:21 50° 89° (E) 01:11:44
UNISAT 6 02 May 00:56:22 00:59:24 19° 293° (WNW) 01:02:24 437.425
BUGSAT 1 02 May 00:57:56 01:01:49 36° 98° (E) 01:05:38 437.445
TISAT 1 02 May 01:01:09 01:04:47 28° 70° (ENE) 01:08:27 437.305
TIGRISAT 02 May 01:15:12 01:17:10 13° 296° (WNW) 01:19:07 435.000
VELOX 1 02 May 01:18:30 01:21:41 19° 266° (W) 01:24:54 145.980
DX 1 02 May 01:19:02 01:22:17 20° 265° (W) 01:25:33 434.975-435.025
UKube-1 02 May 01:27:35 01:30:45 20° 265° (W) 01:33:56 .
JAS-2 02 May 01:36:19 01:43:18 34° 95° (E) 01:50:11 435.910
CUSAT 1 02 May 01:38:13 01:43:37 22° 69° (ENE) 01:49:26 437.405
RS-15 02 May 01:43:43 01:52:44 25° 333° (NNW) 02:02:09 29.354- 29.394
Cosmos 2499 02 May 01:43:50 01:50:39 51° 91° (E) 01:57:27 435.465 / 435.565
Oscar 19 02 May 01:44:28 01:47:40 16° 92° (E) 01:50:52 437.125/150
QB50P2 02 May 01:46:08 01:49:35 24° 291° (WNW) 01:53:00 145.880/145.840
PCSat 02 May 01:46:46 01:52:11 65° 60° (ENE) 01:57:33 145.827
DUCHIFAT 1 02 May 01:47:09 01:50:44 27° 290° (WNW) 01:54:17 145.980
POLYITAN 1 02 May 01:48:18 01:51:43 24° 291° (WNW) 01:55:06 437.675
POPSAT HIP 1 02 May 01:51:14 01:54:36 23° 291° (WNW) 01:57:56 437.405
QB50P1 02 May 01:54:43 01:57:55 21° 292° (WNW) 02:01:05 145.935-145.965
ITUPSAT 1 02 May 01:59:39 02:03:27 24° 67° (ENE) 02:07:14 437.325
SPROUT 02 May 01:59:43 02:02:41 18° 266° (W) 02:05:40 437.525
SWISSCUBE 02 May 02:09:06 02:13:21 33° 70° (ENE) 02:17:36 437.505
DANDE 02 May 02:11:18 02:15:49 19° 71° (ENE) 02:20:52 436.750
O/OREOS (USA 219) 02 May 02:20:25 02:24:39 40° 255° (WSW) 02:28:50 437.305
BUGSAT 1 02 May 02:34:07 02:36:54 17° 294° (WNW) 02:39:39 437.445
AIST 1 02 May 02:34:16 02:36:42 15° 289° (WNW) 02:39:09
TISAT 1 02 May 02:37:05 02:40:25 22° 265° (W) 02:43:46 437.305
BEESAT 02 May 02:41:52 02:46:35 67° 74° (ENE) 02:51:19 436.000
GONETS M04 02 May 02:52:32 03:00:21 34° 288° (WNW) 03:08:13
ITAMSAT 1 02 May 03:01:12 03:03:50 14° 91° (E) 03:06:29 435.822/435.867
Gurwin Techsat 1B 02 May 03:08:41 03:13:45 43° 99° (E) 03:18:47 435.225
CUSAT 1 02 May 03:18:56 03:26:12 77° 263° (W) 03:34:17 437.405
JAS-2 02 May 03:20:56 03:28:21 50° 291° (WNW) 03:35:48 435.910
Oscar 19 02 May 03:22:13 03:27:18 55° 288° (WNW) 03:32:21 437.125/150
AO-7 02 May 03:22:44 03:23:23 10° 88° (E) 03:24:02 29.400- 29.500
MOZHAYETS 4 02 May 03:24:02 03:26:22 14° 64° (ENE) 03:28:42
BEESAT 3 02 May 03:25:16 03:28:03 18° 48° (NE) 03:30:48 437.485
KKS-1 02 May 03:26:33 03:30:07 24° 68° (ENE) 03:33:42 437.445
BEESAT 2 02 May 03:31:16 03:33:15 13° 45° (NE) 03:35:14 435.950
PCSat 02 May 03:31:53 03:34:58 15° 256° (WSW) 03:38:03 145.827
ITUPSAT 1 02 May 03:36:48 03:41:05 33° 262° (W) 03:45:23 437.325
Cosmos 2499 02 May 03:38:27 03:44:04 25° 289° (WNW) 03:49:43 435.465 / 435.565
STARS 02 May 03:46:12 03:49:26 20° 67° (ENE) 03:52:41 437.465
SWISSCUBE 02 May 03:47:24 03:51:10 23° 265° (W) 03:54:57 437.505
DANDE 02 May 03:52:20 03:58:58 81° 263° (W) 04:07:04 436.750
RS-15 02 May 04:03:37 04:11:31 19° 10° (N) 04:19:32 29.354- 29.394
BEESAT 02 May 04:23:19 04:24:48 11° 269° (W) 04:26:16 436.000
ITAMSAT 1 02 May 04:38:35 04:43:43 64° 287° (WNW) 04:48:50 435.822/435.867
Gurwin Techsat 1B 02 May 04:49:19 04:53:23 23° 295° (WNW) 04:57:26 435.225
MOZHAYETS 4 02 May 04:58:34 05:03:03 56° 260° (W) 05:07:33
BEESAT 3 02 May 05:02:12 05:05:54 39° 245° (WSW) 05:09:34 437.485
KKS-1 02 May 05:02:37 05:06:32 30° 263° (W) 05:10:29 437.445
CUSAT 1 02 May 05:04:03 05:07:29 14° 277° (W) 05:11:01 437.405
CUBESAT XI-V 02 May 05:05:41 05:08:48 18° 66° (ENE) 05:11:56 437.345
BEESAT 2 02 May 05:07:33 05:11:30 62° 242° (WSW) 05:15:24 435.950
AO-7 02 May 05:09:10 05:17:29 68° 105° (ESE) 05:25:47 29.400- 29.500
STARS 02 May 05:21:29 05:25:32 35° 262° (W) 05:29:38 437.465
YUBILEINY 02 May 05:23:52 05:29:59 20° 66° (ENE) 05:36:04 435.215
DANDE 02 May 05:38:02 05:41:15 14° 275° (W) 05:44:42 436.750
Cosmos 2491 02 May 06:06:50 06:12:33 19° 79° (E) 06:18:16 435.465 / 435.565
NOAA 18 02 May 06:09:19 06:10:48 11° 90° (E) 06:12:16 137.9125
RS-15 02 May 06:17:27 06:28:50 41° 43° (NE) 06:40:13 29.354- 29.394
BRITE-PL 02 May 06:18:29 06:20:37 12° 88° (E) 06:22:44 437.365/2234.400
HORYU 2 02 May 06:21:48 06:26:14 74° 284° (WNW) 06:30:37 437.375
AIST 2 02 May 06:32:07 06:36:15 69° 58° (ENE) 06:40:22 435.215
CUBESAT XI-V 02 May 06:41:31 06:45:51 41° 262° (W) 06:50:14 437.345
Cubesat XI-IV 02 May 06:45:41 06:49:32 20° 94° (E) 06:53:23 437.490
NOAA 15 02 May 06:46:07 06:50:50 31° 97° (E) 06:55:31 137.62
LilacSat-2 02 May 06:48:26 06:50:41 15° 93° (E) 06:52:56 437.200
AO-7 02 May 07:02:58 07:09:35 28° 303° (WNW) 07:16:14 29.400- 29.500
ISS 02 May 07:08:31 07:10:39 16° 130° (SE) 07:12:48 145.825
YUBILEINY 02 May 07:19:02 07:27:45 80° 266° (W) 07:36:27 435.215
Cosmos 2504 02 May 07:27:31 07:34:08 31° 73° (ENE) 07:41:07 435.465 / 435.565
GOMX 1 02 May 07:32:22 07:37:06 30° 94° (E) 07:41:40 467.674
DOVE 4 02 May 07:33:59 07:36:34 14° 89° (E) 07:39:05 437.250
STRAND 1 02 May 07:39:24 07:44:26 67° 74° (ENE) 07:49:31 437.568
CUTE-I 02 May 07:40:22 07:45:41 69° 102° (ESE) 07:50:59 437.470
NOAA 18 02 May 07:46:34 07:52:03 83° 286° (WNW) 07:57:30 137.9125
BRITE-PL 02 May 07:53:57 07:59:42 85° 285° (WNW) 08:05:18 437.365/2234.400
Cosmos 2491 02 May 07:59:25 08:08:15 80° 278° (W) 08:17:09 435.465 / 435.565
SO-50 02 May 08:05:05 08:09:58 89° 138° (SE) 08:14:56 436.795
M-CUBED/EXP-1 PRIME 02 May 08:13:25 08:17:06 39° 103° (ESE) 08:20:30 437.505
LilacSat-2 02 May 08:21:40 08:25:05 32° 288° (WNW) 08:28:27 437.200
CINEMA 3 02 May 08:23:23 08:25:12 12° 89° (E) 08:26:59 145.822/145.860
HO-68 02 May 08:23:25 08:28:29 20° 93° (E) 08:33:31 435.675
Cubesat XI-IV 02 May 08:24:44 08:29:49 47° 289° (WNW) 08:34:53 437.490
PRISM 02 May 08:25:43 08:29:28 37° 71° (ENE) 08:33:14 437.425
NOAA 15 02 May 08:25:54 08:30:31 31° 292° (WNW) 08:35:07 137.62
RS-15 02 May 08:29:59 08:42:07 67° 246° (WSW) 08:54:11 29.354- 29.394
CANX-2 02 May 08:32:22 08:35:04 16° 93° (E) 08:37:45 2200.000
AUBIESAT-1 02 May 08:32:38 08:36:27 56° 105° (ESE) 08:39:58 437.475
ISS 02 May 08:43:42 08:46:51 45° 326° (NW) 08:50:01 145.825
CUTE 1.7 + AOD 2 02 May 09:04:22 09:08:12 33° 97° (E) 09:12:02 437.475
DOVE 4 02 May 09:09:39 09:14:43 61° 286° (WNW) 09:19:30 437.250
GOMX 1 02 May 09:10:17 09:15:06 33° 291° (WNW) 09:19:44 467.674
CUBEBUG 2 02 May 09:14:59 09:17:01 13° 91° (E) 09:19:03 437.445
YUBILEINY 02 May 09:19:23 09:23:01 13° 284° (WNW) 09:26:40 435.215
Cosmos 2504 02 May 09:20:25 09:27:38 48° 270° (W) 09:35:22 435.465 / 435.565
STRAND 1 02 May 09:21:49 09:24:03 13° 269° (W) 09:26:17 437.568
CUTE-I 02 May 09:22:11 09:25:07 15° 298° (WNW) 09:28:03 437.470
NOAA 18 02 May 09:30:34 09:31:50 11° 302° (WNW) 09:33:05 137.9125
SEEDS 02 May 09:32:42 09:36:48 52° 100° (E) 09:40:53 437.485
BRITE-PL 02 May 09:35:11 09:37:14 12° 300° (WNW) 09:39:18 437.365/2234.400
COMPASS 1 02 May 09:37:26 09:41:24 41° 98° (E) 09:45:20 437.405
ZACube-1 02 May 09:41:44 09:43:10 12° 91° (E) 09:44:36 437.345
SO-50 02 May 09:48:29 09:51:09 14° 319° (NW) 09:53:49 436.795
M-CUBED/EXP-1 PRIME 02 May 09:49:08 09:51:15 14° 301° (WNW) 09:53:18 437.505
